Powrót do katalogu

STARLINK-5232

AktywnyŁącznośćVLEO
NORAD 55675·PAYLOAD·🇺🇸 United States

Wystrzelony Feb 17, 2023 z Vandenberg Space Force Base

Loading…

Następne Przeloty (najbliższe 24 godziny)

TLE

ŚwieżeSource: CelesTrak SupGP

Epoka: Sep 15, 2026, 01:54 UTC

1 55675C 23021AZ  26258.07965278 -.00048840  00000+0 -40938-2 0  2582
2 55675  70.0019  46.7448 0002851 272.0804 248.0518 14.98347965    14

Śledź STARLINK-5232 w czasie rzeczywistym z AllMySat

Download on the App Store